星链-32871 (STARLINK-32871)

导读

STARLINK-32871是美国SpaceX公司星链(Starlink)星座计划中的一颗低轨通信卫星,于2025年2月8日发射入轨。作为全球规模最大的低轨卫星互联网星座组成部分,它承担着为全球偏远地区提供低延迟、高速宽带互联网接入服务的任务,依托星链先进的相控阵天线和星间激光通信技术,助力实现全球网络覆盖,推动卫星互联网商业化应用发展。

基本信息
目录编号:
62924
目录名称:
STARLINK-32871
国际标识:
2025-027T
轨道中心:
EARTH
卫星名称:
星链-32871
卫星全名:
星链-32871 (STARLINK-32871)
卫星状态:
在轨 (已飞行491 天)
发射日期:
2025-02-08 UTC
国别 :
美国 (US)
星等 :
--
轨道信息
数据来源 国际轨道数据
星历时间: 2026-06-14T00:27:46+0800
15小时前
查看轨道信息
半长轴: 6861.181km
偏心率: 0.0002139
轨道倾角: 42.994°
近地点辐角 283.849°
升交点赤经 306.729°
平近点角 76.212°
近地点: 481.576km
远地点: 484.512km
周期: 94.267分钟
每日圈数: 15.275818
详细信息
固有亮度:
5
最大亮度:
2.5
卫星平台:
Starlink V1.0
覆盖范围:
全球
运营商:
太空探索技术公司
运营商所在国:
美国
制造商(研发单位):
太空探索技术公司
制造商所在国:
美国
使用方式:
暂无
卫星简介
Starlink 计划是 SpaceX 推出的全球卫星互联网项目,通过发射低轨道卫星,为全球尤其是偏远地区提供高速、低延迟的互联网服务。自 2019 年起,Starlink 已部署数千颗卫星,旨在缩小全球数字鸿沟,推动互联网普及。该项目还为军事、航空等行业提供通信支持,带来广泛经济效益。
2D轨道图
3D轨道图
轨道高度分析图
轨道倾角分析图
轨道综合分析图
查看轨道综合分析图